Location: Cabobito
(9.9667°N, 67.8000°W)
Time: 16:44:41
(UTC+00:00)

GPS 2-14 Rocket1 - Pass Details

Date: 18 April 2024
Orbit: 371 x 393 km, 20.7° (Epoch: 18 May)

Event Time Altitude Azimuth Distance (km) Brightness Sun altitude
Rises 23:14:19 0° 297° (WNW) 2,376 8.0 -8.6°
Reaches altitude 10° 23:16:32 10° 304° (NW) 1,515 6.4 -9.2°
Maximum altitude 23:19:51 42° 16° (NNE) 621 3.1 -10.0°
Enters shadow 23:22:32 15° 85° (E) 1,273 4.1 -10.6°
